Location: Sigmaringen
(48.0900°N, 9.2120°E)
Time: 22:01:19
(UTC+02:00)

ISS - Visible Passes

Search period start: 25 September 2020 00:00
Search period end: 05 October 2020 00:00
Orbit: 419 x 420 km, 51.6° (Epoch: 26 September)

Date Brightness Start Highest point End Pass type
(mag) Time Alt. Az. Time Alt. Az. Time Alt. Az.
25 Sep -2.9 20:58:05 10° WNW 21:01:21 43° N 21:02:08 36° NE visible
25 Sep -0.2 22:35:04 10° WNW 22:35:06 10° WNW 22:35:06 10° WNW visible
26 Sep -2.9 20:10:35 10° W 20:13:51 45° N 20:16:31 14° ENE visible
26 Sep -1.7 21:47:40 10° WNW 21:49:28 28° NW 21:49:28 28° NW visible
27 Sep -3.2 21:00:15 10° WNW 21:03:33 48° N 21:03:50 47° NNE visible
28 Sep -3.0 20:12:47 10° WNW 20:16:03 44° N 20:18:11 19° ENE visible
28 Sep -1.4 21:49:40 10° WNW 21:51:09 24° WNW 21:51:09 24° WNW visible
29 Sep -3.7 21:02:15 10° WNW 21:05:30 71° N 21:05:30 71° N visible
30 Sep -3.5 20:14:49 10° WNW 20:18:10 57° NNE 20:19:53 25° E visible
30 Sep -1.0 21:51:44 10° WNW 21:52:51 18° W 21:52:51 18° W visible
01 Oct -3.2 19:27:21 10° WNW 19:30:39 48° N 19:33:57 10° E visible
01 Oct -3.3 21:04:13 10° WNW 21:07:16 56° WSW 21:07:16 56° WSW visible
02 Oct -3.8 20:16:45 10° WNW 20:20:08 85° SSW 20:21:42 29° ESE visible
02 Oct -0.6 21:54:12 10° W 21:54:40 12° W 21:54:40 12° W visible
03 Oct -3.7 19:29:17 10° WNW 19:32:40 72° NNE 19:36:02 10° ESE visible
03 Oct -2.1 21:06:22 10° W 21:09:10 27° SW 21:09:10 27° SW visible
04 Oct -2.7 20:18:43 10° WNW 20:21:54 40° SSW 20:23:45 21° SSE visible
